EWG8WH EDDK-LEPA

Flight info

Callsign EWG8WH
Flight time 1h 57m
Altitude 38000
Route NVO2D NVO Y868 NAVAK Z283 SOPOK DCT ROUSY DCT GTQ DCT POGOL DCT LASAT DCT MOROK DCT GILIR DCT GEVEA DCT INCUS DCT BALSI DCT RETNO DCT TUPOX DCT MTG DCT DIVKO DCT VATIR DCT PIVUS DCT BODEQ DCT VERSO L129 LUNIK
Aircraft A320/M-SDE3FGHIRWY/LB1

Departure

Time 2026-04-25 21:57
Airport Cologne Bonn Airport (EDDK)

Arrival

Time 2026-04-25 23:55
Airport Palma de Mallorca Airport (LEPA)
Time Latitude Longitude Altitude Speed Heading
2026-04-25 21:39 50.87876 7.12450 232 ft 0 kts 288°
2026-04-25 21:52 50.87870 7.12479 232 ft 4 kts 288°
2026-04-25 21:52 50.87862 7.12519 234 ft 4 kts 290°
2026-04-25 21:52 50.87851 7.12556 232 ft 4 kts 309°
2026-04-25 21:52 50.87832 7.12580 233 ft 4 kts 358°
2026-04-25 21:53 50.87823 7.12579 234 ft 0 kts 18°
2026-04-25 21:54 50.87832 7.12584 232 ft 7 kts 18°
2026-04-25 21:55 50.87898 7.12617 232 ft 9 kts 19°
2026-04-25 21:55 50.87946 7.12658 232 ft 7 kts 36°
2026-04-25 21:55 50.87974 7.12700 234 ft 3 kts 50°
2026-04-25 21:55 50.87979 7.12710 234 ft 3 kts 53°
2026-04-25 21:56 50.87998 7.12768 237 ft 4 kts 69°
2026-04-25 21:56 50.88002 7.12790 237 ft 4 kts 75°
2026-04-25 21:56 50.87999 7.12937 239 ft 13 kts 109°
2026-04-25 21:56 50.87932 7.13077 239 ft 28 kts 136°
2026-04-25 21:57 50.87655 7.13477 239 ft 87 kts 137°
2026-04-25 21:57 50.87064 7.14336 253 ft 141 kts 137°
2026-04-25 21:57 50.86244 7.15522 408 ft 171 kts 137°
2026-04-25 21:57 50.85350 7.16783 1023 ft 173 kts 138°
2026-04-25 21:58 50.84435 7.18049 1651 ft 179 kts 136°
2026-04-25 21:58 50.83449 7.19433 1971 ft 201 kts 136°
2026-04-25 21:58 50.82347 7.20984 2259 ft 223 kts 137°
2026-04-25 21:58 50.81141 7.22672 2733 ft 238 kts 138°
2026-04-25 21:59 50.79795 7.24223 3495 ft 243 kts 160°
2026-04-25 21:59 50.78132 7.24463 4248 ft 243 kts 196°
2026-04-25 21:59 50.76625 7.23279 4853 ft 245 kts 224°
2026-04-25 22:00 50.75171 7.18645 5034 ft 253 kts 273°
2026-04-25 22:00 50.75326 7.15829 5519 ft 261 kts 280°
2026-04-25 22:00 50.75532 7.12962 6408 ft 265 kts 279°
2026-04-25 22:00 50.75739 7.10049 7244 ft 269 kts 279°
2026-04-25 22:01 50.75948 7.07100 8112 ft 272 kts 279°
2026-04-25 22:01 50.76155 7.04122 8976 ft 275 kts 279°
2026-04-25 22:01 50.76363 7.01103 9812 ft 278 kts 278°
2026-04-25 22:01 50.76504 6.99084 10346 ft 280 kts 278°
2026-04-25 22:02 50.76811 6.94790 10784 ft 310 kts 278°
2026-04-25 22:02 50.77059 6.91329 11000 ft 332 kts 278°
2026-04-25 22:02 50.77323 6.87587 11513 ft 342 kts 278°
2026-04-25 22:02 50.77582 6.83873 12187 ft 347 kts 278°
2026-04-25 22:03 50.77841 6.80060 12894 ft 351 kts 278°
2026-04-25 22:03 50.78099 6.76210 13628 ft 354 kts 278°
2026-04-25 22:03 50.78360 6.72323 14304 ft 358 kts 278°
2026-04-25 22:03 50.78623 6.68393 14932 ft 361 kts 278°
2026-04-25 22:04 50.78893 6.64435 15556 ft 364 kts 278°
2026-04-25 22:04 50.79166 6.60437 16173 ft 367 kts 278°
2026-04-25 22:04 50.79437 6.56403 16766 ft 371 kts 277°
2026-04-25 22:04 50.79705 6.52333 17343 ft 374 kts 277°
2026-04-25 22:05 50.79976 6.48226 17930 ft 378 kts 277°
2026-04-25 22:05 50.80250 6.44080 18506 ft 381 kts 277°
2026-04-25 22:05 50.80525 6.39902 19010 ft 383 kts 277°
2026-04-25 22:05 50.80801 6.35694 19540 ft 385 kts 277°
2026-04-25 22:06 50.81076 6.31473 20070 ft 387 kts 277°
2026-04-25 22:06 50.81352 6.27225 20598 ft 389 kts 277°
2026-04-25 22:06 50.81627 6.22963 21113 ft 391 kts 277°
2026-04-25 22:06 50.81901 6.18679 21618 ft 392 kts 277°
2026-04-25 22:07 50.82175 6.14380 22130 ft 394 kts 277°
2026-04-25 22:07 50.82355 6.11521 22457 ft 395 kts 277°
2026-04-25 22:07 50.82714 6.05700 23065 ft 399 kts 276°
2026-04-25 22:07 50.82922 6.01314 23513 ft 402 kts 271°
2026-04-25 22:08 50.82626 5.96914 23935 ft 407 kts 257°
2026-04-25 22:08 50.81503 5.92794 24298 ft 414 kts 239°
2026-04-25 22:08 50.79589 5.89359 24643 ft 422 kts 221°
2026-04-25 22:08 50.77048 5.86970 24987 ft 430 kts 208°
2026-04-25 22:09 50.74357 5.84892 25336 ft 431 kts 210°
2026-04-25 22:09 50.71715 5.82647 25702 ft 432 kts 212°
2026-04-25 22:09 50.69098 5.80304 26077 ft 433 kts 213°
2026-04-25 22:09 50.66484 5.77934 26441 ft 435 kts 213°
2026-04-25 22:10 50.64744 5.76367 26679 ft 436 kts 212°
2026-04-25 22:10 50.62041 5.74155 27040 ft 440 kts 205°
2026-04-25 22:10 50.59118 5.72657 27363 ft 446 kts 195°
2026-04-25 22:10 50.56026 5.71971 27681 ft 452 kts 185°
2026-04-25 22:11 50.52865 5.72123 27993 ft 457 kts 176°
2026-04-25 22:11 50.49704 5.72746 28298 ft 459 kts 176°
2026-04-25 22:11 50.46525 5.73363 28631 ft 460 kts 176°
2026-04-25 22:11 50.43343 5.73969 28957 ft 462 kts 176°
2026-04-25 22:12 50.40153 5.74566 29253 ft 463 kts 176°
2026-04-25 22:12 50.36944 5.75168 29545 ft 465 kts 176°
2026-04-25 22:12 50.33739 5.75774 29964 ft 463 kts 176°
2026-04-25 22:12 50.31620 5.76178 30253 ft 463 kts 176°
2026-04-25 22:13 50.27355 5.76992 30728 ft 461 kts 176°
2026-04-25 22:13 50.24198 5.77880 31076 ft 463 kts 168°
2026-04-25 22:13 50.21101 5.79252 31418 ft 463 kts 167°
2026-04-25 22:13 50.18005 5.80643 31759 ft 462 kts 167°
2026-04-25 22:14 50.14920 5.82018 32107 ft 461 kts 167°
2026-04-25 22:14 50.11843 5.83385 32466 ft 460 kts 167°
2026-04-25 22:14 50.08768 5.84748 32812 ft 459 kts 167°
2026-04-25 22:14 50.05704 5.86103 33160 ft 458 kts 167°
2026-04-25 22:15 50.02641 5.87456 33524 ft 456 kts 168°
2026-04-25 22:15 49.99597 5.88799 33921 ft 454 kts 168°
2026-04-25 22:15 49.96560 5.90134 34264 ft 453 kts 168°
2026-04-25 22:16 49.90496 5.92797 34802 ft 453 kts 168°
2026-04-25 22:16 49.87456 5.94130 35024 ft 454 kts 168°
2026-04-25 22:16 49.84418 5.95463 35276 ft 454 kts 167°
2026-04-25 22:16 49.81380 5.96797 35528 ft 454 kts 167°
2026-04-25 22:17 49.78345 5.98133 35784 ft 453 kts 167°
2026-04-25 22:17 49.75314 5.99466 36039 ft 452 kts 167°
2026-04-25 22:17 49.72328 6.00776 36280 ft 452 kts 167°
2026-04-25 22:17 49.69264 6.02116 36528 ft 452 kts 167°
2026-04-25 22:18 49.66242 6.03434 36745 ft 451 kts 167°
2026-04-25 22:18 49.63221 6.04752 36971 ft 451 kts 167°
2026-04-25 22:18 49.60243 6.06047 37168 ft 451 kts 167°
2026-04-25 22:19 49.54205 6.08653 37218 ft 450 kts 167°
2026-04-25 22:19 49.48238 6.11762 37216 ft 453 kts 156°
2026-04-25 22:20 49.43006 6.17253 37215 ft 459 kts 143°
2026-04-25 22:20 49.38043 6.23423 37210 ft 459 kts 143°
2026-04-25 22:21 49.33062 6.29563 37286 ft 460 kts 143°
2026-04-25 22:21 49.30570 6.32630 37514 ft 459 kts 144°
2026-04-25 22:21 49.28080 6.35689 37738 ft 459 kts 144°
2026-04-25 22:21 49.25627 6.38705 37954 ft 458 kts 144°
2026-04-25 22:22 49.23144 6.41753 38154 ft 458 kts 144°
2026-04-25 22:22 49.20656 6.44801 38363 ft 457 kts 144°
2026-04-25 22:22 49.18175 6.47840 38541 ft 457 kts 144°
2026-04-25 22:22 49.15659 6.50919 38744 ft 457 kts 144°
2026-04-25 22:23 49.13213 6.53905 38910 ft 456 kts 144°
2026-04-25 22:23 49.10700 6.56970 39048 ft 456 kts 144°
2026-04-25 22:23 49.08223 6.59990 39160 ft 456 kts 143°
2026-04-25 22:24 49.03223 6.66004 39185 ft 458 kts 148°
2026-04-25 22:24 48.97553 6.70176 39179 ft 451 kts 168°
2026-04-25 22:25 48.91441 6.71347 39180 ft 444 kts 185°
2026-04-25 22:25 48.85272 6.71088 39176 ft 443 kts 185°
2026-04-25 22:26 48.79098 6.70845 39182 ft 444 kts 184°
2026-04-25 22:26 48.72925 6.70614 39186 ft 444 kts 184°
2026-04-25 22:27 48.66745 6.70378 39188 ft 444 kts 184°
2026-04-25 22:27 48.60562 6.70142 39187 ft 444 kts 184°
2026-04-25 22:28 48.54386 6.69891 39189 ft 444 kts 185°
2026-04-25 22:28 48.48200 6.69644 39191 ft 445 kts 184°
2026-04-25 22:29 48.42011 6.69414 39184 ft 445 kts 184°
2026-04-25 22:29 48.35823 6.69176 39190 ft 445 kts 184°
2026-04-25 22:30 48.26542 6.68818 39192 ft 445 kts 184°
2026-04-25 22:30 48.21398 6.68617 39179 ft 445 kts 184°
2026-04-25 22:31 48.14159 6.68341 39192 ft 445 kts 184°
2026-04-25 22:31 48.07968 6.68114 39194 ft 445 kts 184°
2026-04-25 22:32 48.01781 6.67879 39190 ft 445 kts 184°
2026-04-25 22:32 47.95589 6.67635 39198 ft 445 kts 184°
2026-04-25 22:33 47.89393 6.67399 39200 ft 445 kts 184°
2026-04-25 22:33 47.83198 6.67167 39202 ft 445 kts 184°
2026-04-25 22:34 47.77002 6.66938 39194 ft 445 kts 184°
2026-04-25 22:34 47.70802 6.66713 39199 ft 445 kts 184°
2026-04-25 22:35 47.64606 6.66486 39192 ft 445 kts 184°
2026-04-25 22:35 47.58409 6.66247 39183 ft 445 kts 184°
2026-04-25 22:36 47.52214 6.66012 39186 ft 445 kts 184°
2026-04-25 22:36 47.46024 6.65785 39187 ft 445 kts 185°
2026-04-25 22:37 47.40027 6.64023 39176 ft 437 kts 204°
2026-04-25 22:37 47.34889 6.59549 39176 ft 431 kts 223°
2026-04-25 22:38 47.30332 6.53805 39173 ft 431 kts 222°
2026-04-25 22:38 47.25758 6.48091 39173 ft 431 kts 222°
2026-04-25 22:39 47.21175 6.42381 39178 ft 432 kts 222°
2026-04-25 22:39 47.16594 6.36671 39173 ft 432 kts 222°
2026-04-25 22:40 47.12011 6.30959 39181 ft 432 kts 222°
2026-04-25 22:40 47.07138 6.25814 39180 ft 435 kts 208°
2026-04-25 22:41 47.01338 6.23236 39176 ft 440 kts 188°
2026-04-25 22:41 46.95228 6.22437 39165 ft 441 kts 187°
2026-04-25 22:42 46.89114 6.21631 39166 ft 441 kts 187°
2026-04-25 22:42 46.82994 6.20800 39170 ft 442 kts 187°
2026-04-25 22:43 46.76866 6.19979 39169 ft 442 kts 187°
2026-04-25 22:43 46.70735 6.19168 39176 ft 442 kts 187°
2026-04-25 22:44 46.64601 6.18355 39183 ft 443 kts 187°
2026-04-25 22:44 46.58470 6.17550 39176 ft 443 kts 187°
2026-04-25 22:45 46.52336 6.16753 39172 ft 443 kts 187°
2026-04-25 22:45 46.46272 6.15485 39169 ft 438 kts 201°
2026-04-25 22:46 46.40517 6.12560 39149 ft 438 kts 201°
2026-04-25 22:46 46.34770 6.09602 39151 ft 438 kts 201°
2026-04-25 22:47 46.29018 6.06657 39153 ft 438 kts 201°
2026-04-25 22:47 46.23267 6.03718 39154 ft 438 kts 201°
2026-04-25 22:48 46.17515 6.00785 39157 ft 438 kts 201°
2026-04-25 22:48 46.11800 5.97888 39155 ft 438 kts 201°
2026-04-25 22:49 46.06055 5.94984 39159 ft 437 kts 201°
2026-04-25 22:49 46.00316 5.92072 39150 ft 437 kts 201°
2026-04-25 22:50 45.94580 5.89178 39152 ft 437 kts 201°
2026-04-25 22:50 45.88839 5.86293 39154 ft 437 kts 201°
2026-04-25 22:51 45.83096 5.83411 39154 ft 437 kts 201°
2026-04-25 22:51 45.77352 5.80535 39151 ft 437 kts 201°
2026-04-25 22:52 45.71608 5.77665 39157 ft 437 kts 201°
2026-04-25 22:52 45.66840 5.75279 39156 ft 437 kts 201°
2026-04-25 22:53 45.60132 5.71935 39154 ft 437 kts 201°
2026-04-25 22:53 45.54395 5.69079 39155 ft 437 kts 201°
2026-04-25 22:54 45.48652 5.66237 39155 ft 437 kts 201°
2026-04-25 22:54 45.43883 5.63879 39145 ft 437 kts 201°
2026-04-25 22:55 45.38140 5.61041 39148 ft 437 kts 201°
2026-04-25 22:55 45.32400 5.58202 39152 ft 437 kts 201°
2026-04-25 22:56 45.26651 5.55377 39158 ft 437 kts 201°
2026-04-25 22:56 45.20897 5.52560 39153 ft 438 kts 201°
2026-04-25 22:57 45.15146 5.49746 39156 ft 438 kts 201°
2026-04-25 22:57 45.09385 5.46927 39156 ft 438 kts 201°
2026-04-25 22:58 45.03625 5.44115 39155 ft 438 kts 201°
2026-04-25 22:58 44.97857 5.41315 39156 ft 438 kts 201°
2026-04-25 22:59 44.92084 5.38512 39157 ft 439 kts 201°
2026-04-25 22:59 44.86312 5.35713 39077 ft 438 kts 198°
2026-04-25 23:00 44.80562 5.32936 39142 ft 437 kts 198°
2026-04-25 23:00 44.74811 5.30169 39150 ft 436 kts 198°
2026-04-25 23:01 44.69069 5.27407 39155 ft 436 kts 198°
2026-04-25 23:01 44.63329 5.24650 39151 ft 436 kts 198°
2026-04-25 23:02 44.57593 5.21892 39148 ft 436 kts 198°
2026-04-25 23:02 44.51856 5.19152 39145 ft 436 kts 198°
2026-04-25 23:03 44.46111 5.16418 39134 ft 436 kts 198°
2026-04-25 23:03 44.40400 5.13696 39133 ft 437 kts 198°
2026-04-25 23:04 44.34646 5.10959 39131 ft 437 kts 198°
2026-04-25 23:04 44.28890 5.08219 39126 ft 437 kts 198°
2026-04-25 23:05 44.23118 5.05491 39123 ft 438 kts 198°
2026-04-25 23:05 44.17340 5.02767 39119 ft 439 kts 198°
2026-04-25 23:06 44.11553 5.00037 39121 ft 439 kts 198°
2026-04-25 23:06 44.05758 4.97308 39116 ft 440 kts 198°
2026-04-25 23:07 43.99947 4.94582 39116 ft 441 kts 199°
2026-04-25 23:07 43.94132 4.91857 39117 ft 442 kts 199°
2026-04-25 23:08 43.88301 4.89131 39118 ft 442 kts 198°
2026-04-25 23:08 43.82468 4.86404 39120 ft 443 kts 198°
2026-04-25 23:09 43.76631 4.83676 39121 ft 443 kts 198°
2026-04-25 23:09 43.70791 4.80970 39115 ft 443 kts 198°
2026-04-25 23:10 43.64948 4.78266 39116 ft 443 kts 198°
2026-04-25 23:10 43.59090 4.75556 39120 ft 444 kts 198°
2026-04-25 23:11 43.53231 4.72852 39121 ft 444 kts 199°
2026-04-25 23:11 43.47367 4.70153 39120 ft 444 kts 198°
2026-04-25 23:12 43.41509 4.67457 39111 ft 444 kts 199°
2026-04-25 23:12 43.35691 4.64781 39111 ft 444 kts 199°
2026-04-25 23:13 43.29827 4.62094 39109 ft 444 kts 199°
2026-04-25 23:13 43.23956 4.59412 39104 ft 445 kts 199°
2026-04-25 23:14 43.18082 4.56739 39100 ft 445 kts 199°
2026-04-25 23:14 43.12197 4.54059 39091 ft 446 kts 200°
2026-04-25 23:15 43.06299 4.51376 39089 ft 447 kts 199°
2026-04-25 23:15 43.00395 4.48702 39090 ft 447 kts 199°
2026-04-25 23:16 42.94485 4.46027 39096 ft 448 kts 200°
2026-04-25 23:16 42.88607 4.43367 39099 ft 440 kts 200°
2026-04-25 23:17 42.82829 4.40770 39097 ft 436 kts 199°
2026-04-25 23:17 42.77070 4.38182 39104 ft 435 kts 199°
2026-04-25 23:18 42.71321 4.35600 39100 ft 435 kts 200°
2026-04-25 23:18 42.65570 4.33020 39108 ft 436 kts 200°
2026-04-25 23:19 42.59810 4.30436 39113 ft 436 kts 200°
2026-04-25 23:19 42.54053 4.27858 39116 ft 436 kts 200°
2026-04-25 23:20 42.48288 4.25294 39110 ft 436 kts 200°
2026-04-25 23:20 42.42508 4.22739 39117 ft 437 kts 200°
2026-04-25 23:21 42.36728 4.20175 39127 ft 437 kts 200°
2026-04-25 23:21 42.30982 4.17624 39121 ft 438 kts 200°
2026-04-25 23:22 42.25184 4.15061 39122 ft 439 kts 200°
2026-04-25 23:23 42.16531 4.11013 39130 ft 438 kts 208°
2026-04-25 23:23 42.11175 4.07115 39131 ft 438 kts 210°
2026-04-25 23:24 42.05830 4.03193 39132 ft 438 kts 210°
2026-04-25 23:24 42.00477 3.99267 39139 ft 438 kts 210°
2026-04-25 23:25 41.95116 3.95350 39146 ft 439 kts 209°
2026-04-25 23:25 41.89357 3.92650 39145 ft 442 kts 191°
2026-04-25 23:26 41.83296 3.91263 39148 ft 442 kts 191°
2026-04-25 23:26 41.77238 3.89868 39154 ft 442 kts 191°
2026-04-25 23:27 41.71183 3.88471 39153 ft 441 kts 191°
2026-04-25 23:27 41.65130 3.87074 39150 ft 441 kts 191°
2026-04-25 23:28 41.59080 3.85681 39154 ft 441 kts 191°
2026-04-25 23:28 41.53023 3.84294 39158 ft 441 kts 191°
2026-04-25 23:29 41.46970 3.82913 39156 ft 441 kts 191°
2026-04-25 23:29 41.40919 3.81530 39159 ft 441 kts 191°
2026-04-25 23:30 41.34865 3.80138 39162 ft 441 kts 191°
2026-04-25 23:30 41.28812 3.78760 39161 ft 441 kts 191°
2026-04-25 23:31 41.22761 3.77384 39164 ft 441 kts 191°
2026-04-25 23:31 41.16710 3.75996 39165 ft 441 kts 193°
2026-04-25 23:32 41.10915 3.73424 39164 ft 439 kts 202°
2026-04-25 23:32 41.05222 3.70480 39167 ft 440 kts 202°
2026-04-25 23:33 40.99515 3.67558 39167 ft 440 kts 202°
2026-04-25 23:33 40.93844 3.64641 39168 ft 440 kts 202°
2026-04-25 23:34 40.88136 3.61713 39172 ft 440 kts 202°
2026-04-25 23:34 40.82423 3.58790 39170 ft 440 kts 202°
2026-04-25 23:35 40.76705 3.55870 39168 ft 441 kts 202°
2026-04-25 23:35 40.70985 3.52959 39169 ft 441 kts 202°
2026-04-25 23:36 40.65266 3.50037 39170 ft 441 kts 202°
2026-04-25 23:36 40.59551 3.47134 39171 ft 440 kts 202°
2026-04-25 23:37 40.53832 3.44247 39110 ft 440 kts 202°
2026-04-25 23:37 40.50966 3.42797 38011 ft 443 kts 202°
2026-04-25 23:37 40.48070 3.41330 36500 ft 449 kts 201°
2026-04-25 23:37 40.45062 3.40127 35055 ft 456 kts 192°
2026-04-25 23:38 40.41906 3.39519 33526 ft 461 kts 183°
2026-04-25 23:38 40.38684 3.39530 31822 ft 466 kts 176°
2026-04-25 23:38 40.35419 3.39735 30089 ft 473 kts 176°
2026-04-25 23:38 40.32126 3.39931 28722 ft 469 kts 176°
2026-04-25 23:39 40.28920 3.40113 27889 ft 452 kts 176°
2026-04-25 23:39 40.25847 3.40283 27285 ft 433 kts 176°
2026-04-25 23:39 40.22874 3.40446 26606 ft 426 kts 176°
2026-04-25 23:39 40.19925 3.40608 25943 ft 423 kts 176°
2026-04-25 23:40 40.17000 3.40769 25283 ft 418 kts 176°
2026-04-25 23:40 40.14094 3.40929 24638 ft 416 kts 176°
2026-04-25 23:40 40.11226 3.41088 24001 ft 411 kts 176°
2026-04-25 23:40 40.09337 3.41195 23554 ft 408 kts 176°
2026-04-25 23:41 40.05573 3.41416 22691 ft 403 kts 176°
2026-04-25 23:41 40.02786 3.41579 22089 ft 399 kts 176°
2026-04-25 23:41 40.00951 3.41685 21726 ft 397 kts 176°
2026-04-25 23:41 39.98205 3.41842 21165 ft 394 kts 176°
2026-04-25 23:42 39.95481 3.41993 20640 ft 390 kts 176°
2026-04-25 23:42 39.92778 3.42139 20119 ft 387 kts 176°
2026-04-25 23:42 39.90101 3.42290 19615 ft 384 kts 176°
2026-04-25 23:42 39.87441 3.42440 19126 ft 381 kts 176°
2026-04-25 23:43 39.84805 3.42587 18637 ft 378 kts 176°
2026-04-25 23:43 39.82183 3.42736 18113 ft 375 kts 176°
2026-04-25 23:43 39.79585 3.42882 17612 ft 373 kts 176°
2026-04-25 23:43 39.77004 3.43027 17120 ft 370 kts 176°
2026-04-25 23:44 39.74440 3.42870 16618 ft 369 kts 188°
2026-04-25 23:44 39.71992 3.41937 16106 ft 367 kts 202°
2026-04-25 23:44 39.69789 3.40276 15587 ft 366 kts 217°
2026-04-25 23:44 39.67973 3.38009 15122 ft 356 kts 231°
2026-04-25 23:45 39.66684 3.35393 14930 ft 335 kts 243°
2026-04-25 23:45 39.65660 3.32735 14649 ft 325 kts 243°
2026-04-25 23:45 39.64652 3.30127 14413 ft 322 kts 243°
2026-04-25 23:45 39.63648 3.27534 14179 ft 321 kts 243°
2026-04-25 23:46 39.62650 3.24949 13945 ft 320 kts 243°
2026-04-25 23:46 39.61657 3.22376 13681 ft 318 kts 243°
2026-04-25 23:46 39.60666 3.19815 13412 ft 317 kts 243°
2026-04-25 23:46 39.59680 3.17268 13128 ft 316 kts 243°
2026-04-25 23:47 39.58689 3.14706 12689 ft 318 kts 243°
2026-04-25 23:47 39.57703 3.12163 12397 ft 314 kts 243°
2026-04-25 23:47 39.56723 3.09641 12024 ft 313 kts 243°
2026-04-25 23:47 39.55745 3.07129 11662 ft 311 kts 243°
2026-04-25 23:48 39.54772 3.04631 11318 ft 310 kts 242°
2026-04-25 23:48 39.53815 3.02177 10954 ft 309 kts 242°
2026-04-25 23:48 39.52851 2.99704 10615 ft 307 kts 242°
2026-04-25 23:48 39.51891 2.97242 10273 ft 305 kts 242°
2026-04-25 23:49 39.50936 2.94795 9916 ft 304 kts 242°
2026-04-25 23:49 39.49987 2.92365 9531 ft 302 kts 242°
2026-04-25 23:49 39.49042 2.89948 9119 ft 300 kts 242°
2026-04-25 23:49 39.48108 2.87566 8662 ft 293 kts 242°
2026-04-25 23:50 39.47183 2.85210 7877 ft 294 kts 243°
2026-04-25 23:50 39.46253 2.82845 7017 ft 297 kts 243°
2026-04-25 23:50 39.45308 2.80434 6171 ft 300 kts 243°
2026-04-25 23:50 39.44379 2.78011 5117 ft 305 kts 248°
2026-04-25 23:51 39.43894 2.75351 4420 ft 298 kts 267°
2026-04-25 23:51 39.44010 2.72754 3845 ft 286 kts 282°
2026-04-25 23:51 39.44390 2.70284 3457 ft 270 kts 282°
2026-04-25 23:51 39.44955 2.68117 3379 ft 242 kts 301°
2026-04-25 23:52 39.45962 2.66500 3245 ft 223 kts 321°
2026-04-25 23:52 39.47217 2.65464 3097 ft 207 kts 339°
2026-04-25 23:52 39.48526 2.64995 2964 ft 183 kts 354°
2026-04-25 23:52 39.49731 2.64982 2630 ft 167 kts
2026-04-25 23:53 39.50848 2.65324 2030 ft 168 kts 21°
2026-04-25 23:53 39.51882 2.66025 1407 ft 168 kts 36°
2026-04-25 23:53 39.52740 2.67040 861 ft 165 kts 50°
2026-04-25 23:53 39.53355 2.68206 598 ft 149 kts 58°
2026-04-25 23:54 39.53878 2.69305 375 ft 138 kts 58°
2026-04-25 23:54 39.54372 2.70349 198 ft 134 kts 58°
2026-04-25 23:54 39.54857 2.71366 46 ft 128 kts 58°
2026-04-25 23:54 39.55272 2.72237 30 ft 93 kts 58°
2026-04-25 23:55 39.55513 2.72751 30 ft 21 kts 59°
2026-04-25 23:55 39.55494 2.72834 30 ft 9 kts 131°
2026-04-25 23:55 39.55453 2.72895 30 ft 10 kts 130°
2026-04-25 23:55 39.55405 2.72959 30 ft 9 kts 146°
2026-04-25 23:56 39.55349 2.72970 30 ft 8 kts 201°
2026-04-25 23:56 39.55287 2.72943 30 ft 9 kts 194°
2026-04-25 23:56 39.55273 2.72939 30 ft 0 kts 193°